Temperature
22 23 22 22 21 21 21 20 20 20 20 20 19 19 19 19 19 19 19 19 19 19 18 18 18 18 18 18 18 19 19 19 19 19 19 19 19 18 18 18 18 18 18
22 23 22 22 21 21 20 20 20 20 20 20 19 19 19 19 19 19 19 19 19 19 19 18 18 18 18 19 19 19 19 19 19 18 18 18 18 18 18 18 18 18 18
23 23 22 22 21 21 20 20 20 20 20 19 19 19 19 19 19 19 19 19 19 19 19 19 19 19 19 19 19 19 19 18 18 18 18 18 18 18 18 18 18 18 18
22 22 22 21 21 20 20 20 20 20 19 19 19 19 19 19 19 19 19 19 19 19 19 19 19 19 19 19 19 19 19 18 18 18 17 17 18 18 18 18 18 18 18
21 22 22 21 21 20 20 20 20 20 19 19 19 19 19 19 19 19 19 19 19 18 18 18 18 19 19 19 19 19 19 18 18 18 18 18 18 18 18 18 18 18 18
21 22 22 21 21 20 20 20 20 19 19 19 19 19 19 19 19 19 19 19 19 18 18 18 18 18 19 19 19 19 19 18 18 18 18 18 18 18 18 18 18 18 18
21 21 22 21 21 20 20 20 19 19 19 19 19 19 19 19 19 19 19 19 19 18 18 18 18 18 18 19 19 19 19 18 18 18 18 18 18 18 18 18 18 18 18
21 21 21 21 20 20 20 19 19 19 19 19 19 19 19 19 19 19 19 19 18 18 18 18 18 18 18 18 19 19 19 19 18 18 18 18 18 18 18 18 18 18 18
21 21 21 21 20 20 20 19 19 19 19 19 19 19 19 19 19 19 19 18 18 18 18 18 18 18 18 18 18 19 19 19 18 18 18 18 18 19 18 18 18 18 18
21 21 20 19 19 19 19 19 19 19 19 19 19 19 19 19 19 19 19 19 18 18 18 18 18 18 18 18 18 19 19 19 19 18 18 18 18 18 18 18 18 18 18
21 21 20 20 19 19 19 19 19 19 19 18 18 18 18 18 18 18 18 18 18 18 18 18 18 18 18 18 18 18 19 19 19 18 18 18 18 18 18 18 18 18 18
21 21 20 20 19 19 19 19 19 18 18 18 18 18 18 18 18 18 18 18 18 18 18 18 18 18 18 18 18 18 18 19 19 18 18 18 18 18 18 18 18 18 18
21 20 20 20 19 19 19 19 18 18 18 18 18 18 18 18 18 18 18 18 18 18 18 18 18 18 18 18 17 18 18 18 18 18 18 18 18 18 18 18 18 18 18
20 20 20 19 19 19 19 19 18 18 18 18 18 18 18 18 18 18 18 18 18 18 18 18 17 17 17 17 17 17 17 18 18 18 18 18 18 18 18 18 18 18 18
20 19 19 19 19 19 19 19 18 18 18 18 17 18 18 17 17 17 17 17 17 17 17 17 17 17 17 17 17 17 17 17 18 18 18 18 18 18 18 18 18 18 18
19 19 19 18 18 18 18 18 18 18 18 17 17 17 17 17 17 17 17 17 17 17 17 17 17 17 17 17 17 17 17 17 17 17 17 17 17 18 18 18 18 18 18
19 18 18 18 18 18 18 18 18 18 17 17 16 16 16 16 16 17 16 16 16 16 16 17 17 17 17 17 17 17 17 17 17 17 17 17 17 17 17 18 18 18 18
19 18 18 18 18 18 18 18 18 17 17 17 16 16 16 15 15 16 16 16 16 16 16 16 16 16 16 16 16 16 16 17 17 17 17 17 17 17 17 17 18 18 18
18 18 18 18 18 18 18 18 17 17 17 16 16 16 15 15 14 15 15 15 15 15 15 16 16 16 16 16 16 16 17 17 17 17 17 17 17 17 17 17 17 17 17
18 18 18 18 18 18 18 17 17 17 17 16 16 16 15 14 14 14 14 14 14 15 15 15 15 15 15 16 16 16 16 16 17 17 17 17 17 17 16 16 17 17 17
18 18 18 18 18 18 17 17 17 17 17 16 16 15 15 14 14 14 13 14 14 14 14 14 14 14 15 15 15 16 16 17 17 17 17 17 17 17 17 17 17 17 17
18 18 18 18 18 18 17 17 17 17 16 16 16 15 14 14 13 13 13 13 13 13 13 13 13 13 14 14 15 15 16 17 17 17 17 17 17 17 17 17 17 17 16
19 19 19 18 18 18 17 17 17 16 16 16 16 15 15 14 13 13 12 12 12 13 13 13 13 13 13 14 14 15 15 16 16 17 17 17 17 17 17 16 16 16 16
20 19 19 19 18 18 17 17 16 16 16 16 16 15 15 14 13 13 12 12 12 12 12 12 13 13 13 13 14 14 15 15 15 15 16 17 17 16 16 16 16 16 16
21 20 19 19 18 18 17 17 16 16 16 16 15 15 14 14 14 13 13 12 12 12 12 12 12 12 12 12 13 13 14 14 15 15 15 16 16 16 16 16 16 16 16
21 21 20 19 18 18 17 17 16 16 15 15 15 14 14 14 14 14 13 12 12 12 12 12 12 12 12 12 12 13 13 13 14 14 15 15 16 16 16 16 16 16 16
Wind_Speed
19 18 18 15 13 12 11 10 11 11 11 11 11 11 11 12 12 11 11 11 10 10 10 10 10 9 9 8 8 8 8 8 8 8 9 10 10 10 10 12 13 15 16
21 19 19 16 14 12 11 10 11 11 11 11 11 11 11 11 11 10 10 9 9 9 9 9 9 9 8 8 8 8 7 6 6 6 8 10 10 10 9 9 13 15 16
21 19 18 16 15 13 12 11 11 11 11 12 12 11 11 11 10 9 8 8 7 7 7 7 8 8 7 7 7 6 5 4 4 3 4 8 11 9 9 12 16 16 16
20 19 18 17 15 14 13 12 12 12 12 12 12 11 11 10 9 8 7 6 6 6 6 6 6 6 6 6 6 5 3 2 1 0 3 8 11 11 12 15 16 15 15
19 19 19 17 15 14 13 12 12 12 12 11 10 10 9 8 7 6 5 5 4 4 4 4 4 5 5 5 4 3 1 2 3 4 6 13 13 12 13 14 14 14 14
20 19 18 16 15 13 12 11 11 11 10 9 9 8 7 6 5 5 4 3 3 3 3 3 3 4 4 3 3 1 1 4 7 3 9 14 13 12 12 13 13 13 13
19 19 18 16 14 12 10 9 9 8 8 7 6 6 5 4 3 2 2 2 1 1 2 2 2 3 4 3 2 2 3 6 9 2 11 15 14 13 12 11 12 12 12
20 19 17 15 13 11 10 8 7 6 6 5 4 3 2 1 1 1 2 2 2 2 2 3 3 3 4 4 4 4 5 8 6 1 11 15 17 15 12 11 11 11 11
19 17 15 15 13 11 10 8 7 6 5 4 3 2 2 2 3 4 4 4 4 4 4 4 4 5 5 6 6 6 6 7 9 6 8 15 17 15 13 11 10 10 11
15 15 13 14 13 12 11 9 8 6 5 4 4 4 4 6 7 7 8 8 7 5 5 6 6 7 7 7 8 8 8 8 10 7 5 14 18 15 13 12 11 10 11
12 11 10 12 10 9 11 11 9 8 6 4 4 5 5 6 5 6 9 7 8 7 7 8 8 8 8 10 11 11 9 9 11 6 6 16 17 16 14 13 12 12 12
11 10 8 9 6 6 7 9 6 6 6 2 2 0 2 4 5 5 4 7 8 8 9 10 10 9 10 10 13 14 10 12 11 6 9 21 18 17 15 14 13 14 13
11 10 9 8 7 6 5 5 5 5 5 5 6 5 4 4 5 4 1 4 6 8 8 8 9 10 10 9 6 10 12 11 9 7 11 21 19 18 16 15 15 15 15
12 10 10 9 7 7 6 4 4 4 3 4 6 7 6 3 3 3 3 3 4 5 5 5 5 8 8 7 7 7 9 9 8 6 10 19 18 18 17 16 16 16 17
12 11 10 9 7 5 4 3 4 3 2 5 7 9 9 4 3 4 3 4 5 4 3 3 4 3 4 5 6 8 7 8 9 8 7 18 19 19 18 17 16 17 17
11 10 9 8 7 5 4 3 2 3 4 6 7 9 10 8 6 5 4 3 3 3 2 2 3 3 3 4 5 6 7 9 10 9 9 14 19 20 20 19 18 18 18
11 10 8 8 6 5 4 2 3 4 7 5 6 9 10 10 8 7 5 3 3 5 2 3 4 3 5 5 6 6 5 8 8 10 12 12 14 19 21 21 21 21 20
11 8 6 8 8 6 4 2 4 6 5 4 6 9 10 9 9 7 5 4 7 7 4 3 3 3 3 2 3 4 4 5 7 10 12 14 14 14 19 23 23 23 22
10 8 7 7 7 6 4 2 4 4 2 2 6 8 7 8 9 8 5 4 7 5 4 5 3 3 3 3 4 5 6 6 7 9 9 12 14 15 14 20 25 25 25
10 8 7 7 6 5 3 2 1 1 1 2 6 7 5 6 8 8 5 6 7 5 5 5 5 4 4 4 7 6 4 6 6 7 9 9 12 16 17 16 18 21 26
10 9 7 7 7 3 2 1 0 1 1 1 3 6 3 5 6 6 4 5 5 5 6 6 5 7 6 5 5 5 6 8 8 8 8 7 8 12 15 15 15 15 17
11 9 8 7 7 5 3 2 1 1 3 1 1 4 3 4 5 6 6 5 6 6 6 5 5 4 6 6 5 5 5 6 4 5 3 5 5 3 5 11 12 13 13
11 11 10 9 8 6 4 3 2 1 3 1 2 1 4 3 3 4 4 4 5 6 5 6 5 6 5 6 6 4 4 4 5 4 2 1 2 1 2 3 8 12 14
12 12 9 9 7 6 5 3 3 3 3 2 1 1 2 1 2 1 2 4 4 5 6 6 7 6 6 6 6 5 4 3 3 4 5 2 2 3 3 3 4 7 12
12 11 10 10 8 7 5 4 4 4 3 3 3 3 1 3 4 3 2 1 3 5 4 5 6 6 6 6 6 6 6 5 4 5 6 5 3 3 4 5 4 4 10
9 9 10 11 8 7 6 5 4 3 3 4 4 4 4 3 2 3 2 2 2 4 5 5 6 7 6 6 5 6 6 5 5 5 5 6 5 4 3 4 4 4 7
Wind_Direction
115 119 114 106 101 101 110 124 136 137 136 131 125 121 117 114 113 111 108 106 102 97 91 85 80 76 73 72 71 71 71 71 72 75 77 79 84 93 102 112 114 110 115
116 119 113 107 101 97 100 110 124 130 132 130 126 123 121 120 119 118 116 113 108 102 96 89 84 80 78 77 78 78 77 77 80 88 96 95 95 101 109 114 112 118 119
115 121 115 107 102 97 95 101 112 120 124 124 124 123 123 123 123 123 122 119 115 109 103 96 90 86 84 84 85 83 80 80 84 103 122 113 108 102 106 113 117 121 120
121 127 119 112 106 100 96 97 104 111 116 119 121 123 123 123 125 125 125 123 121 116 111 104 98 94 91 92 92 89 82 69 57 232 145 125 115 105 112 120 123 124 124
115 115 118 117 111 107 103 101 103 107 112 116 119 120 122 124 125 126 127 129 129 127 123 120 115 111 106 105 102 96 65 316 302 274 115 105 106 117 121 126 128 128 127
118 119 121 120 117 115 112 110 109 110 112 114 115 117 121 125 129 129 133 137 139 143 144 138 141 138 132 129 126 127 305 308 296 273 123 118 117 124 126 131 134 134 133
121 119 125 123 121 119 117 115 113 114 115 116 118 119 121 123 131 144 158 166 172 174 175 176 173 166 163 163 169 208 277 294 281 275 122 119 125 131 132 136 139 139 140
119 120 124 124 123 123 122 121 122 123 123 123 125 126 132 147 200 244 242 231 226 227 222 215 204 201 199 194 197 219 260 284 292 357 117 124 135 136 138 142 147 150 149
120 124 134 136 136 136 136 136 137 136 135 138 148 165 202 235 244 248 249 242 238 241 241 234 229 227 221 215 214 222 246 271 290 285 131 132 142 143 147 151 157 161 162
120 126 138 142 145 153 151 149 148 150 156 168 186 207 227 244 247 247 245 233 229 235 243 244 240 236 228 222 220 225 239 262 263 265 131 140 149 150 155 161 165 168 171
112 116 126 131 142 152 150 148 159 167 173 187 205 220 246 274 282 247 246 237 226 227 234 241 244 240 231 226 223 224 229 246 249 238 132 144 156 159 164 170 174 176 177
117 110 98 107 115 118 122 134 154 158 150 126 65 146 263 308 309 297 228 221 227 234 237 238 240 239 232 232 222 218 226 233 254 233 155 154 166 168 172 178 183 184 186
119 107 106 97 82 73 84 94 81 79 84 79 62 24 7 323 297 301 286 222 235 245 244 243 230 234 234 236 225 204 224 241 236 233 165 163 171 174 177 185 191 192 193
116 107 95 84 76 60 58 73 75 69 67 75 67 38 12 328 314 324 308 288 256 255 241 249 236 236 241 246 242 230 234 241 254 238 172 169 178 181 182 190 198 199 198
111 102 94 89 85 83 65 58 76 71 67 80 66 49 14 356 357 342 324 301 285 268 238 233 241 250 252 249 246 240 240 244 256 256 200 182 186 190 191 196 201 205 206
109 105 104 103 105 107 99 90 104 99 80 72 70 53 23 11 8 345 308 297 292 282 258 247 245 230 233 233 238 245 245 245 245 247 229 199 197 199 201 203 206 208 210
112 115 119 117 113 109 110 114 94 74 69 70 80 69 36 15 1 341 313 307 345 327 300 255 259 239 236 232 230 239 240 242 243 234 238 231 214 210 210 210 210 211 212
122 127 141 125 121 107 89 50 72 58 57 61 69 67 37 3 8 339 329 353 351 327 306 273 248 259 268 271 254 251 246 236 242 237 232 235 231 224 217 216 215 215 214
127 131 115 114 125 121 118 100 101 107 96 85 83 69 34 3 13 350 331 350 340 326 319 320 20 358 331 328 297 257 244 238 231 236 228 229 228 228 221 216 218 219 218
134 135 128 132 130 139 146 150 150 126 125 89 96 88 49 11 20 351 322 11 351 329 342 356 348 331 311 288 285 291 277 254 238 233 231 228 224 225 225 222 214 222 224
147 149 154 157 151 176 179 193 94 57 353 24 113 107 62 30 9 324 349 346 328 340 352 332 338 324 308 282 279 284 270 256 236 223 222 224 222 220 220 217 211 214 219
160 160 166 165 164 189 168 162 191 261 281 273 77 126 96 47 356 346 28 339 351 343 314 317 325 317 309 309 300 299 300 292 302 252 215 219 231 219 216 217 213 217 223
171 175 181 178 174 186 184 213 243 204 259 277 47 84 81 35 344 360 347 340 345 325 341 347 328 321 311 311 303 299 305 322 339 311 292 181 205 238 246 217 212 217 221
180 182 179 171 176 180 193 235 273 284 296 319 306 88 81 292 267 314 2 351 345 323 324 328 14 338 322 312 313 306 284 301 307 317 321 298 210 204 227 253 236 220 219
185 183 174 169 174 181 198 224 246 283 320 354 9 4 329 261 223 202 137 46 330 305 332 349 327 323 316 315 322 324 319 300 253 260 292 304 287 238 212 217 234 231 221
186 181 170 164 172 181 197 223 231 264 302 316 316 306 292 284 249 147 136 104 303 312 344 328 316 306 308 316 318 313 312 310 308 301 299 305 300 287 244 219 216 227 227
Height
1521 1524 1527 1530 1533 1535 1538 1540 1542 1544 1545 1547 1548 1549 1550 1550 1551 1552 1552 1553 1554 1555 1556 1557 1557 1558 1558 1559 1559 1560 1560 1561 1561 1561 1561 1562 1562 1563 1564 1565 1566 1567 1569
1520 1524 1528 1531 1534 1536 1539 1541 1543 1545 1546 1548 1549 1550 1551 1552 1552 1553 1554 1554 1555 1556 1557 1558 1558 1559 1559 1560 1560 1561 1561 1562 1562 1563 1563 1564 1564 1565 1566 1567 1568 1569 1571
1521 1525 1528 1532 1535 1538 1540 1542 1544 1546 1548 1549 1550 1551 1552 1553 1554 1554 1555 1556 1556 1557 1558 1559 1560 1560 1561 1561 1561 1562 1563 1563 1564 1564 1565 1566 1567 1567 1568 1569 1571 1572 1573
1522 1526 1529 1533 1536 1539 1541 1543 1545 1547 1548 1550 1551 1552 1553 1554 1555 1555 1556 1557 1557 1558 1559 1560 1561 1561 1562 1562 1563 1563 1564 1565 1566 1566 1567 1568 1569 1570 1570 1571 1573 1574 1575
1525 1527 1531 1534 1537 1540 1542 1544 1546 1548 1549 1551 1552 1553 1554 1555 1555 1556 1557 1557 1558 1559 1560 1560 1561 1562 1562 1563 1564 1565 1566 1567 1567 1568 1569 1570 1571 1571 1572 1573 1575 1576 1577
1526 1529 1532 1535 1538 1541 1543 1545 1547 1548 1550 1551 1552 1553 1554 1555 1556 1556 1557 1558 1558 1559 1560 1561 1562 1562 1563 1564 1564 1566 1567 1568 1568 1570 1571 1571 1572 1573 1574 1575 1576 1578 1579
1529 1530 1534 1537 1539 1542 1544 1546 1547 1549 1551 1552 1553 1554 1555 1555 1556 1556 1557 1558 1558 1559 1560 1561 1562 1562 1563 1564 1565 1566 1568 1568 1569 1571 1571 1572 1573 1574 1575 1576 1577 1579 1581
1529 1532 1535 1538 1540 1543 1545 1547 1548 1550 1551 1552 1553 1554 1555 1555 1556 1556 1557 1557 1558 1559 1560 1561 1561 1562 1563 1564 1565 1566 1567 1568 1570 1572 1572 1572 1573 1574 1575 1576 1578 1580 1582
1531 1533 1536 1539 1542 1544 1545 1547 1549 1550 1551 1552 1553 1554 1554 1555 1555 1556 1556 1557 1557 1558 1559 1560 1560 1561 1562 1563 1564 1565 1567 1568 1569 1571 1573 1572 1573 1574 1576 1577 1578 1580 1582
1533 1536 1538 1541 1543 1544 1546 1547 1549 1550 1551 1552 1553 1553 1554 1554 1555 1555 1556 1556 1556 1557 1558 1559 1559 1560 1561 1562 1563 1565 1566 1567 1569 1571 1572 1572 1573 1574 1576 1577 1578 1580 1582
1534 1537 1540 1542 1544 1545 1546 1547 1548 1550 1551 1551 1552 1552 1553 1553 1554 1554 1554 1554 1555 1555 1556 1557 1558 1559 1560 1561 1562 1563 1564 1566 1568 1569 1570 1570 1573 1574 1575 1576 1578 1580 1582
1535 1538 1540 1542 1544 1547 1548 1548 1549 1550 1551 1551 1551 1551 1552 1552 1553 1553 1553 1553 1553 1553 1554 1555 1556 1557 1558 1559 1560 1561 1562 1564 1565 1567 1568 1569 1571 1573 1574 1576 1577 1579 1581
1535 1538 1541 1542 1544 1546 1548 1548 1549 1550 1550 1551 1551 1551 1551 1551 1551 1551 1551 1551 1551 1551 1552 1553 1553 1554 1555 1556 1557 1558 1560 1561 1563 1565 1565 1566 1568 1570 1572 1574 1576 1577 1579
1536 1538 1540 1542 1544 1546 1547 1548 1549 1549 1550 1551 1550 1550 1550 1550 1550 1549 1549 1549 1549 1549 1549 1550 1551 1552 1553 1554 1555 1556 1557 1559 1561 1562 1563 1563 1565 1567 1569 1571 1573 1575 1577
1535 1537 1539 1542 1543 1545 1547 1548 1549 1550 1550 1550 1550 1549 1549 1548 1548 1547 1547 1547 1547 1547 1547 1548 1548 1549 1550 1550 1551 1553 1554 1555 1556 1559 1560 1560 1562 1564 1566 1568 1570 1572 1574
1535 1537 1539 1542 1544 1545 1547 1548 1549 1550 1550 1550 1549 1548 1547 1546 1545 1545 1545 1545 1545 1545 1545 1546 1546 1547 1547 1548 1548 1549 1550 1551 1552 1554 1556 1557 1558 1559 1562 1564 1566 1568 1570
1534 1537 1539 1541 1544 1546 1548 1549 1550 1550 1550 1549 1548 1547 1545 1545 1544 1543 1543 1544 1543 1543 1544 1544 1545 1545 1545 1545 1545 1546 1546 1547 1548 1549 1551 1552 1553 1554 1556 1558 1561 1563 1565
1534 1537 1540 1542 1544 1546 1547 1549 1549 1549 1549 1549 1548 1546 1544 1544 1543 1542 1541 1542 1541 1542 1542 1543 1543 1543 1543 1543 1543 1543 1543 1543 1544 1545 1546 1547 1548 1549 1551 1553 1555 1558 1560
1534 1537 1540 1542 1544 1546 1547 1548 1549 1549 1549 1549 1547 1545 1544 1543 1541 1540 1540 1540 1539 1540 1540 1541 1540 1540 1540 1540 1540 1541 1540 1540 1540 1541 1541 1542 1543 1545 1546 1547 1550 1552 1554
1534 1537 1540 1542 1544 1546 1547 1548 1549 1549 1549 1548 1546 1544 1543 1542 1540 1539 1539 1538 1538 1538 1538 1538 1538 1538 1538 1538 1539 1538 1537 1537 1536 1537 1537 1538 1538 1540 1541 1543 1544 1546 1549
1535 1537 1540 1542 1543 1545 1546 1547 1548 1548 1548 1547 1546 1543 1542 1541 1539 1539 1538 1537 1537 1536 1536 1536 1536 1536 1536 1537 1537 1536 1535 1534 1533 1532 1533 1534 1535 1535 1536 1538 1540 1541 1543
1535 1537 1539 1541 1542 1544 1545 1546 1546 1546 1546 1546 1545 1543 1541 1539 1538 1538 1536 1535 1535 1534 1534 1534 1534 1534 1534 1535 1535 1534 1532 1532 1529 1529 1529 1530 1531 1532 1532 1534 1535 1537 1538
1534 1536 1539 1540 1541 1543 1544 1544 1545 1545 1545 1545 1543 1542 1540 1538 1537 1536 1535 1534 1533 1533 1533 1533 1533 1532 1532 1532 1532 1533 1532 1529 1528 1527 1527 1527 1527 1528 1529 1530 1531 1532 1533
1533 1535 1537 1538 1540 1541 1542 1542 1543 1543 1543 1543 1541 1540 1538 1537 1536 1535 1534 1532 1531 1531 1531 1531 1530 1530 1530 1530 1530 1530 1531 1530 1529 1527 1526 1526 1525 1525 1525 1526 1527 1528 1529
1532 1533 1535 1536 1537 1538 1539 1540 1540 1540 1541 1540 1539 1538 1537 1536 1535 1534 1532 1531 1530 1530 1530 1529 1528 1527 1527 1528 1527 1527 1527 1528 1528 1527 1525 1525 1524 1523 1523 1523 1523 1524 1525
1530 1532 1533 1534 1535 1536 1537 1537 1538 1538 1537 1536 1536 1535 1535 1535 1535 1533 1532 1530 1529 1529 1528 1527 1526 1525 1525 1525 1524 1525 1525 1525 1525 1525 1524 1523 1522 1521 1521 1521 1520 1520 1520